Location: Newark
(49.3808°N, 3.1844°E)
Time: 02:13:16
(UTC+00:00)

Vanguard 1 Rocket - Pass Details

Date: 20 November 2019
Orbit: 650 x 4226 km, 34.3° (Epoch: 13 December)

Event Time Altitude Azimuth Distance (km) Brightness Sun altitude
Rises 05:26:10 0° 241° (WSW) 2,973 - -15.8°
Exits shadow 05:28:13 - 226° (SW) 2,377 9.2 -15.5°
Reaches altitude 10° 05:29:08 10° 217° (SW) 2,181 9.1 -15.3°
Maximum altitude 05:32:01 16° 179° (S) 2,022 9.3 -14.9°
Drops below altitude 10° 05:35:29 10° 144° (SE) 2,730 10.6 -14.3°
Sets 05:39:59 0° 124° (SE) 4,232 12.3 -13.6°
